This is the latest recevied weather packets stored in our database for station/object HARMAJA. If no packets are shown the sender has not sent any weather packets the latest 10 day(s).
| Time | Temp. | Humidity | Pressure | Rain* | Wind** | Luminosity | Snow |
|---|---|---|---|---|---|---|---|
| 1788333872 | 13.33° C | 86% | 1008.1 hPa | - | - | - | - |
| 1788332673 | 13.33° C | 86% | 1007.9 hPa | - | - | - | - |
| 1788331472 | 13.89° C | 86% | 1007.8 hPa | - | - | - | - |
| 1788330273 | 13.89° C | 87% | 1007.7 hPa | - | - | - | - |
| 1788327873 | 13.89° C | 92% | 1007.5 hPa | - | - | - | - |
| 1788326674 | 13.33° C | 97% | 1007.4 hPa | - | - | - | - |
| 1788325474 | 13.33° C | 97% | 1007.3 hPa | - | - | - | - |
| 1788323073 | 13.89° C | 100% | 1007.3 hPa | - | - | - | - |
| 1788300272 | 15.56° C | 98% | 1007.5 hPa | - | - | - | - |
| 1788299073 | 15.56° C | 98% | 1007.4 hPa | - | - | - | - |
| 1788297873 | 15.56° C | 97% | 1007.4 hPa | - | - | - | - |
| 1788296672 | 16.11° C | 97% | 1007.4 hPa | - | - | - | - |
| 1788290671 | 16.11° C | 98% | 1007.6 hPa | - | - | - | - |
| 1788287071 | 16.11° C | 97% | 1007.7 hPa | - | - | - | - |
| 1788284671 | 16.11° C | 96% | 1007.8 hPa | - | - | - | - |
| 1788283473 | 16.67° C | 95% | 1007.8 hPa | - | - | - | - |
| 1788282272 | 16.67° C | 94% | 1007.7 hPa | - | - | - | - |
| 1788281072 | 16.67° C | 94% | 1007.6 hPa | - | - | - | - |
| 1788279871 | 16.67° C | 93% | 1007.7 hPa | - | - | - | - |
| 1788276271 | 17.22° C | 92% | 1008 hPa | - | - | - | - |
| 1788275071 | 17.22° C | 92% | 1008.2 hPa | - | - | - | - |
| 1788272670 | 17.78° C | 89% | 1008.1 hPa | - | - | - | - |
| 1788270271 | 17.78° C | 89% | 1008.4 hPa | - | - | - | - |
| 1788267869 | 17.78° C | 89% | 1008.4 hPa | - | - | - | - |
| 1788266670 | 17.78° C | 88% | 1008.5 hPa | - | - | - | - |
* Rain since midnight (hover to see other rain measurements)
** Current wind speed in m/s (hover to see current wind gust speed)